Location: Chester Center
(41.5342°N, 81.3379°W)
Time: 06:46:04
(UTC+00:00)

Daily predictions for brighter satellites

Satellite Brightness Start Highest point End
(mag) Time Altitude Azimuth Time Altitude Azimuth Time Altitude Azimuth
Cosmos 1833 Rocket 2.9 22:21:40 10° NNW 22:27:11 51° ENE 22:32:39 10° SE
Thor Agena Rocket 3.6 22:23:01 10° SSE 22:28:14 71° ENE 22:33:30 10° N
CZ-4C R/B 3.8 22:27:41 10° W 22:31:09 21° NW 22:35:15 10° NNE
SJ-12 4.5 22:28:36 10° SE 22:32:00 31° ENE 22:35:23 10° N
YAOGAN 1 4.4 22:33:30 10° E 22:34:57 12° ENE 22:36:24 10° NE
Cosmos 2221 Rocket 4.2 22:33:13 10° NNW 22:37:39 63° W 22:42:01 10° S
Cosmos 1812 3.8 22:43:17 10° SE 22:44:57 14° E 22:46:33 10° NE
NOSS 3 (A) 4.5 22:43:49 10° S 22:45:22 24° ESE 22:46:18 15° ENE
IRS-P3 4.5 22:40:33 10° SE 22:45:32 43° ENE 22:50:33 10° N
Cosmos 1441 Rocket 3.2 22:42:28 10° NNW 22:45:48 68° W 22:49:08 10° S
SJ 16-02 3.2 22:44:56 10° ESE 22:46:22 11° E 22:47:35 10° ENE
Cosmos 2058 4.4 22:45:36 10° NE 22:47:58 15° ENE 22:50:20 10° ESE
Cosmos 1484 Rocket 4.4 22:44:56 10° SSW 22:48:08 35° W 22:51:24 10° NNW
OAO 2 Rocket 4.4 22:48:23 10° WSW 22:52:59 37° S 22:57:40 10° ESE
Tiangong 0.9 22:54:14 10° WSW 22:56:03 14° SSW 22:57:51 10° S
Cosmos 1869 3.4 22:52:45 10° SSE 22:56:06 41° E 22:59:25 10° NNE
ARIANE 5 R/B 2.4 22:52:29 10° SSE 22:57:26 77° ENE 23:02:26 10° N
DNEPR-1 R/B 4.0 22:53:03 10° NW 22:57:39 80° WSW 23:03:03 10° SSE
Cosmos 44 Rocket 3.8 22:54:35 10° S 22:58:57 38° ESE 23:03:04 12° NE
SMAP 3.2 22:56:23 10° S 23:01:02 80° WSW 23:05:42 10° NNW
Timation 2 Rocket 4.3 22:54:37 10° S 23:01:20 61° ESE 23:08:05 10° NNE
AQUARIUS 4.0 23:05:54 10° SSE 23:10:18 73° ENE 23:14:42 10° N
Cosmos 2061 Rocket 4.3 23:04:20 10° SSW 23:10:39 73° W 23:16:55 10° N
SL-4 R/B 4.0 23:09:52 10° W 23:12:43 24° SW 23:15:40 10° S
Landsat 7 3.8 23:09:23 10° S 23:14:01 82° WSW 23:18:42 10° NNW
Meteor 2-12 Rocket 4.3 23:12:16 10° N 23:18:22 72° E 23:24:24 10° SSE
SPOT 1/Viking Rocket 3.6 23:18:14 10° SSE 23:23:15 54° ENE 23:28:18 10° N
ATLAS 2AS CENTAUR R/B 4.3 23:21:47 10° N 23:25:24 15° NNE 23:27:19 13° NE
Cosmos 407 Rocket 3.5 23:20:35 10° SSW 23:25:47 83° WNW 23:30:58 10° NNE
Geosat FO 3.8 23:23:24 10° SSE 23:26:18 76° ENE 23:29:10 10° NNW
CZ-2D R/B 4.2 23:23:25 10° S 23:26:24 40° W 23:29:25 10° NNW
ISS -3.3 23:23:28 10° WSW 23:26:44 53° NNW 23:28:16 27° NE
SL-12 R/B(2) 4.3 23:20:49 10° SW 23:28:35 85° WNW 23:38:06 10° NE
Cosmos 2082 Rocket 2.7 23:24:41 10° N 23:29:52 37° ENE 23:33:07 20° ESE
Cosmos 1943 Rocket 2.1 23:24:41 10° SSW 23:30:19 89° ESE 23:35:56 10° NNE
Cosmos 1464 Rocket 4.1 23:24:16 10° SSE 23:30:22 53° E 23:36:25 10° NNE
Cosmos 371 Rocket 4.1 23:26:33 10° SSE 23:30:36 28° E 23:31:10 27° E
Cosmos 2278 Rocket 2.1 23:25:01 10° SSW 23:30:41 86° ESE 23:36:23 10° NNE
OAO 3 Rocket 4.2 23:26:47 10° SW 23:30:57 33° S 23:33:15 21° ESE
Cosmos 2151 Rocket 3.8 23:27:00 10° SSE 23:31:15 45° E 23:35:05 13° NNE
Aureole 3 Rocket 2.0 23:29:04 10° S 23:32:11 87° E 23:34:33 16° N
Cosmos 1975 Rocket 3.9 23:28:36 10° NNW 23:32:50 53° W 23:37:05 10° S
ATLAS 5 CENTAUR R/B 2.4 23:31:32 10° NW 23:36:07 62° WSW 23:41:48 10° SSE
Cosmos 304 Rocket 4.4 23:32:29 10° SSE 23:36:42 33° ESE 23:37:16 32° E
CZ-4 R/B 4.2 23:33:25 10° SSE 23:37:23 85° ENE 23:41:22 10° N
COSMO-SKYMED 1 2.4 23:36:04 15° NNE 23:39:26 62° ESE 23:43:30 10° S
Sich 1 Rocket 4.1 23:35:30 10° SSE 23:39:37 36° E 23:40:00 35° E
MOS 1 Rocket 3.3 23:36:00 10° S 23:40:14 73° WSW 23:44:39 10° NNW
USA 215 3.8 23:35:09 10° SSE 23:41:33 58° SW 23:48:00 10° NW
Spot 4 Rocket 3.9 23:37:05 10° SSE 23:42:08 68° ENE 23:47:13 10° N
Cosmos 2034 Rocket 4.3 23:36:37 10° SSE 23:42:22 43° E 23:48:12 10° NNE
SKYMED 2 3.6 23:39:24 10° N 23:43:45 80° WNW 23:48:05 10° SSW
Helios 1A Rocket 2.2 23:43:03 36° NNE 23:44:18 79° ESE 23:47:40 10° S
Timation 1 Rocket 4.2 23:39:02 10° NNW 23:45:01 78° ENE 23:50:59 10° SSE
Okean 1 Rocket 3.4 23:42:35 10° SSE 23:46:31 41° E 23:46:31 41° E
RESURS DK-1 2.2 23:51:03 10° NNW 23:55:05 85° WSW 23:57:09 27° SSE
